Regional Weather Roundup
Issued by NWS Newport/Morehead, NC

Current Version | Previous Version | Text Only | Print | Product List | Glossary Off
Versions: 1 2 3 4 5 6 7 8 9 10 11 12 13 14 15 16 17 18 19 20 21 22 23 24 25 26 27 28 29 30 31 32 33 34 35 36 37 38 39 40 41 42 43 44 45 46 47 48 49 50
000 ASUS42 KMHX 280913 RWRMHX WEATHER ROUNDUP FOR EASTERN NORTH CAROLINA NATIONAL WEATHER SERVICE NEWPORT/MOREHEAD CITY NC 500 AM EDT FRI AUG 28 2015 NOTE: "FAIR" INDICATES FEW OR NO CLOUDS BELOW 12,000 FEET WITH NO SIGNIFICANT WEATHER AND/OR OBSTRUCTIONS TO VISIBILITY NCZ015>017-031-032-045>047-102-103-281000- NORTH COAST CITY SKY/WX TMP DP RH WIND PRES REMARKS EDENTON MOCLDY 65 62 87 N3 30.10S ELIZABETH CITY CLOUDY 71 65 81 N9 30.09S KITTY HAWK CLOUDY 75 62 64 NE6 30.07S MANTEO CLOUDY 74 62 67 NE12 30.08S $$ NCZ045>047-081-094-103-104-281000- CENTRAL COAST CITY SKY/WX TMP DP RH WIND PRES REMARKS FRISCO CLOUDY 74 67 78 NE9G20 30.06S SWANQUARTER NOT AVBL $$ NCZ095-097-098-100-101-281000- SOUTHERN COAST CITY SKY/WX TMP DP RH WIND PRES REMARKS BEAUFORT CLOUDY 71 68 90 NE8 30.05S CEDAR ISLAND NOT AVBL JACKSONVILLE CLOUDY 69 63 81 N5 30.05F PINEY ISLAND FLURRIES N/A N/A N/A NE15 30.06R WILMINGTON CLOUDY 69 64 84 NE9 30.05F $$ NCZ011>013-027>030-043-044-078>080-089-090>093-098-281000- COASTAL PLAIN CITY SKY/WX TMP DP RH WIND PRES REMARKS AHOSKIE CLEAR 63 60 93 CALM 30.11F CLINTON MOCLDY 68 64 89 N3 30.09R ELIZABETHTOWN MOCLDY 68 64 86 CALM 30.07S GOLDSBORO PTCLDY 65 62 90 N5 30.08S GREENVILLE MOCLDY 64 63 94 N3 30.11S HAVELOCK CLOUDY 73 66 78 N9 30.07S KENANSVILLE N/A 66 64 91 CALM 30.08F KINSTON PTCLDY 65 63 94 CALM 30.09F NEW BERN CLOUDY 70 65 84 NE6 30.07F RICHLANDS CLOUDY 66 61 82 N6 30.07S ROCKY MOUNT CLEAR 63 61 93 NE5 30.11F WASHINGTON MOCLDY 65 63 92 CALM 30.09R WHITEVILLE MOCLDY 68 63 84 NE3 30.06S $$ AMZ130-135-150-152-154-156-158-170-250-252-270-ANZ085-086-088-633-658-670-281000- MARINE OBSERVATIONS STATION/POSITION TIME TEMP WIND PRES WAVE SWELL AIR SEA DIR/SP/G HT/PER HT/PER (UTC) (F) (DEG/KT/KT) (MB) (FT/S) (FT/S) CHESAPEAKE LIGHT 0900 75 50/ 10/ 11 1020.0 64 E VA BEACH 0850 76 79 40/ 16/ 17 1018.1 4/ 9 3/ 9 DUCK 0800 76 78 40/ 15/ 17 1017.8 2 E DUCK 0811 78 N/A 4/12 2/12 OREGON INLET 0800 76 77 30/ 12/ 18 1018.1 13E OREGON INLT 0900 79 N/A 5/ 5 2/13 HATTERAS CG 0800 75 80 30/ 11/ 14 1017.4 DIAMOND BUOY 0850 78 82 40/ 19/ 23 1016.9 4/ 8 3/ 8 CAPE LOOKOUT 0900 77 40/ 18/ 21 1017.0 BEAUFORT LAB 0800 73 80 20/ 8/ 10 1016.9 30 SE NEW RVR IN 0808 78 82 50/ 12/ 17 1017.1 30 SE NEW RVR IN 0825 82 N/A 3/ 5 2/11 27 SE WRIGHTSVLE NOT AVBL 5 SE WRIGHTSVLE 0808 77 82 50/ 17/ 21 1017.0 225 S CAPE HAT 0850 80 83 100/ 2/ 4 1016.0 3/12 3/12 41 SE CHARLESTON 0850 81 84 30/ 4/ 6 1015.8 3/ 9 2/ 9 $$

USA.gov is the U.S. government's official web portal to all federal, state and local government web resources and services.